| time (UTC) | temp C | wind direction | speed KPH | gust KPH | rain 1hr cm | rain 24hr cm | rain mn cm | humidity % | barometer mb |
| 20260503055054 | 14 | 0 | 0.0 | 0.0 | 0.00 | 0.00 | 0.00 | 87 | 1011.4 |
| 20260503054054 | 13 | 0 | 0.0 | 0.0 | 0.00 | 0.00 | 0.00 | 89 | 1011.5 |
| 20260503053055 | 13 | 0 | 0.0 | 0.0 | 0.00 | 0.00 | 0.00 | 92 | 1011.6 |
| 20260503052054 | 12 | 0 | 0.0 | 0.0 | 0.00 | 0.00 | 0.00 | 93 | 1011.6 |
| 20260503051055 | 12 | 0 | 0.0 | 0.0 | 0.00 | 0.00 | 0.00 | 93 | 1011.6 |
| 20260503050055 | 12 | 0 | 0.0 | 0.0 | 0.00 | 0.00 | 0.00 | 92 | 1011.6 |
| 20260503045055 | 12 | 0 | 0.0 | 0.0 | 0.00 | 0.00 | 0.00 | 92 | 1011.6 |
| 20260503043055 | 12 | 0 | 0.0 | 0.0 | 0.00 | 0.00 | 0.00 | 92 | 1011.7 |
| 20260503041054 | 13 | 0 | 0.0 | 0.0 | 0.00 | 0.00 | 0.00 | 91 | 1011.8 |
| 20260503035055 | 13 | 0 | 0.0 | 0.0 | 0.00 | 0.03 | 0.00 | 91 | 1011.9 |
| 20260503034055 | 13 | 0 | 0.0 | 0.0 | 0.00 | 0.03 | 0.00 | 90 | 1012.0 |
| 20260503033055 | 13 | 0 | 0.0 | 0.0 | 0.00 | 0.03 | 0.00 | 90 | 1012.0 |
| 20260503032055 | 13 | 0 | 0.0 | 0.0 | 0.00 | 0.03 | 0.00 | 90 | 1012.1 |
| 20260503031055 | 13 | 0 | 0.0 | 0.0 | 0.00 | 0.03 | 0.00 | 91 | 1012.1 |
| 20260503025054 | 13 | 0 | 0.0 | 0.0 | 0.00 | 0.03 | 0.00 | 90 | 1012.1 |
| 20260503024056 | 13 | 0 | 0.0 | 0.0 | 0.00 | 0.03 | 0.00 | 90 | 1012.1 |
| 20260503023055 | 13 | 0 | 0.0 | 0.0 | 0.00 | 0.03 | 0.00 | 91 | 1012.2 |
| 20260503021055 | 13 | 0 | 0.0 | 0.0 | 0.00 | 0.03 | 0.00 | 91 | 1012.3 |
| 20260503020056 | 13 | 0 | 0.0 | 0.0 | 0.00 | 0.03 | 0.00 | 91 | 1012.3 |
| 20260503015055 | 13 | 0 | 0.0 | 0.0 | 0.00 | 0.03 | 0.00 | 91 | 1012.3 |
| 20260503014055 | 13 | 0 | 0.0 | 0.0 | 0.00 | 0.03 | 0.00 | 91 | 1012.4 |
| 20260503013056 | 13 | 0 | 0.0 | 0.0 | 0.00 | 0.03 | 0.00 | 90 | 1012.5 |
| 20260503012057 | 13 | 0 | 0.0 | 0.0 | 0.00 | 0.03 | 0.00 | 90 | 1012.7 |
| 20260503011055 | 13 | 0 | 0.0 | 0.0 | 0.00 | 0.03 | 0.00 | 89 | 1012.8 |
| 20260503010056 | 14 | 0 | 0.0 | 0.0 | 0.00 | 0.03 | 0.00 | 88 | 1012.7 |
| 20260503005056 | 14 | 0 | 0.0 | 0.0 | 0.00 | 0.03 | 0.00 | 87 | 1012.9 |
| 20260503004055 | 14 | 0 | 0.0 | 0.0 | 0.00 | 0.03 | 0.00 | 87 | 1012.9 |
| 20260503003056 | 14 | 0 | 0.0 | 0.0 | 0.00 | 0.03 | 0.00 | 87 | 1012.9 |
| 20260503002055 | 14 | 0 | 0.0 | 0.0 | 0.00 | 0.03 | 0.00 | 88 | 1012.9 |
| 20260503000058 | 14 | 0 | 0.0 | 0.0 | 0.00 | 0.03 | 0.00 | 88 | 1013.0 |
| 20260502235058 | 14 | 0 | 0.0 | 0.0 | 0.00 | 0.03 | 0.00 | 87 | 1013.2 |
| 20260502234057 | 14 | 0 | 0.0 | 0.0 | 0.00 | 0.03 | 0.00 | 88 | 1013.2 |
| 20260502233056 | 14 | 0 | 0.0 | 0.0 | 0.00 | 0.03 | 0.00 | 87 | 1013.2 |
| 20260502231056 | 15 | 0 | 0.0 | 0.0 | 0.00 | 0.03 | 0.00 | 87 | 1013.2 |
| 20260502225056 | 15 | 0 | 0.0 | 0.0 | 0.00 | 0.03 | 0.00 | 86 | 1013.3 |
| 20260502223057 | 15 | 0 | 0.0 | 0.0 | 0.00 | 0.03 | 0.00 | 85 | 1013.2 |
| 20260502222057 | 15 | 0 | 0.0 | 0.0 | 0.00 | 0.03 | 0.00 | 85 | 1013.3 |
| 20260502221057 | 15 | 0 | 0.0 | 0.0 | 0.00 | 0.03 | 0.00 | 84 | 1013.2 |
| 20260502215058 | 15 | 0 | 0.0 | 0.0 | 0.00 | 0.03 | 0.03 | 84 | 1013.3 |
| 20260502214059 | 15 | 0 | 0.0 | 0.0 | 0.00 | 0.03 | 0.03 | 84 | 1013.3 |
| 20260502213058 | 15 | 0 | 0.0 | 0.0 | 0.00 | 0.03 | 0.03 | 83 | 1013.3 |
| 20260502212058 | 16 | 0 | 0.0 | 0.0 | 0.00 | 0.03 | 0.03 | 83 | 1013.3 |
| 20260502211057 | 16 | 0 | 0.0 | 0.0 | 0.00 | 0.03 | 0.03 | 83 | 1013.3 |
| 20260502205059 | 16 | 0 | 0.0 | 0.0 | 0.00 | 0.03 | 0.03 | 82 | 1013.4 |
| 20260502204058 | 16 | 0 | 0.0 | 0.0 | 0.00 | 0.03 | 0.03 | 82 | 1013.5 |
| 20260502203100 | 16 | 0 | 0.0 | 0.0 | 0.00 | 0.03 | 0.03 | 82 | 1013.5 |
| 20260502202103 | 16 | 0 | 0.0 | 0.0 | 0.00 | 0.03 | 0.03 | 82 | 1013.5 |
| 20260502201105 | 16 | 0 | 0.0 | 0.0 | 0.00 | 0.03 | 0.03 | 82 | 1013.6 |
| 20260502200100 | 16 | 0 | 0.0 | 0.0 | 0.00 | 0.03 | 0.03 | 82 | 1013.6 |
| 20260502195057 | 16 | 0 | 0.0 | 0.0 | 0.00 | 0.03 | 0.03 | 81 | 1013.6 |
| 20260502194057 | 17 | 0 | 0.0 | 0.0 | 0.00 | 0.03 | 0.03 | 80 | 1013.6 |
| 20260502193058 | 17 | 0 | 0.0 | 0.0 | 0.00 | 0.03 | 0.03 | 80 | 1013.6 |
| 20260502192058 | 17 | 0 | 0.0 | 0.0 | 0.00 | 0.03 | 0.03 | 78 | 1013.7 |
| 20260502191101 | 18 | 0 | 0.0 | 0.0 | 0.00 | 0.03 | 0.03 | 76 | 1013.6 |
| 20260502190059 | 18 | 0 | 0.0 | 0.0 | 0.00 | 0.03 | 0.03 | 75 | 1013.6 |
| 20260502185059 | 19 | 0 | 0.0 | 0.0 | 0.00 | 0.03 | 0.03 | 73 | 1013.6 |
| 20260502184058 | 20 | 0 | 0.0 | 0.0 | 0.00 | 0.03 | 0.03 | 71 | 1013.5 |
| 20260502183100 | 20 | 0 | 0.0 | 0.0 | 0.00 | 0.03 | 0.03 | 67 | 1013.5 |
| 20260502182058 | 20 | 0 | 0.0 | 0.0 | 0.00 | 0.03 | 0.03 | 68 | 1013.4 |
| 20260502181057 | 21 | 0 | 0.0 | 0.0 | 0.00 | 0.03 | 0.03 | 66 | 1013.2 |
| 20260502164056 | 23 | 0 | 0.0 | 0.0 | 0.00 | 0.03 | 0.03 | 55 | 1013.4 |
| 20260502163059 | 23 | 0 | 0.0 | 0.0 | 0.00 | 0.03 | 0.03 | 53 | 1013.6 |
| 20260502162056 | 23 | 0 | 0.0 | 0.0 | 0.00 | 0.03 | 0.03 | 52 | 1013.8 |
| 20260502152058 | 24 | 0 | 0.0 | 0.0 | 0.00 | 0.03 | 0.03 | 51 | 1014.3 |
| 20260502151058 | 25 | 0 | 0.0 | 0.0 | 0.00 | 0.03 | 0.03 | 51 | 1014.4 |
| 20260502123055 | 22 | 0 | 0.0 | 0.0 | 0.00 | 0.03 | 0.03 | 56 | 1017.1 |
| 20260502122056 | 21 | 0 | 0.0 | 0.0 | 0.00 | 0.03 | 0.03 | 59 | 1017.3 |
| 20260502121054 | 21 | 0 | 0.0 | 0.0 | 0.00 | 0.03 | 0.03 | 59 | 1017.4 |
| 20260502115052 | 22 | 0 | 0.0 | 0.0 | 0.00 | 0.03 | 0.03 | 61 | 1017.6 |
| 20260502113055 | 21 | 0 | 0.0 | 0.0 | 0.00 | 0.03 | 0.03 | 57 | 1017.8 |
| 20260502112056 | 21 | 0 | 0.0 | 0.0 | 0.00 | 0.03 | 0.03 | 59 | 1017.9 |
| 20260502111056 | 22 | 0 | 0.0 | 0.0 | 0.00 | 0.03 | 0.03 | 58 | 1017.9 |
| 20260502104055 | 21 | 0 | 0.0 | 0.0 | 0.00 | 0.03 | 0.03 | 64 | 1018.2 |
| 20260502103055 | 21 | 0 | 0.0 | 0.0 | 0.00 | 0.03 | 0.03 | 63 | 1018.3 |
| 20260502101055 | 20 | 0 | 0.0 | 0.0 | 0.00 | 0.03 | 0.03 | 64 | 1018.5 |
| 20260502071055 | 13 | 0 | 0.0 | 0.0 | 0.00 | 0.03 | 0.03 | 82 | 1019.7 |
| 20260502070054 | 13 | 0 | 0.0 | 0.0 | 0.00 | 0.03 | 0.03 | 83 | 1019.8 |
| 20260502065055 | 13 | 0 | 0.0 | 0.0 | 0.00 | 0.03 | 0.03 | 82 | 1020.0 |
| 20260502064054 | 13 | 0 | 0.0 | 0.0 | 0.00 | 0.03 | 0.03 | 83 | 1020.0 |
| 20260502063054 | 13 | 0 | 0.0 | 0.0 | 0.00 | 0.03 | 0.03 | 85 | 1019.9 |
| 20260502060055 | 11 | 0 | 0.0 | 0.0 | 0.00 | 0.03 | 0.03 | 94 | 1020.0 |